TimeEST,TemperatureF,Dew PointF,Humidity,Sea Level PressureIn,VisibilityMPH,Wind Direction,Wind SpeedMPH,Gust SpeedMPH,PrecipitationIn,Events,Conditions,WindDirDegrees,DateUTC
12:56 AM,66.0,57.0,73,29.71,10.0,SSW,18.4,-,N/A,,Overcast,210,2012-12-11 05:56:00
1:56 AM,66.0,57.0,73,29.73,10.0,SW,13.8,-,N/A,,Overcast,220,2012-12-11 06:56:00
2:43 AM,66.2,57.2,73,29.73,10.0,SSW,13.8,-,0.00,Rain,Light Rain,210,2012-12-11 07:43:00
2:56 AM,66.0,57.0,73,29.74,10.0,SW,12.7,-,0.00,Rain,Light Rain,220,2012-12-11 07:56:00
3:08 AM,64.4,57.2,77,29.73,10.0,SW,12.7,21.9,0.00,,Overcast,220,2012-12-11 08:08:00
3:56 AM,64.9,55.9,73,29.75,10.0,SW,12.7,-,0.00,,Overcast,230,2012-12-11 08:56:00
4:56 AM,63.0,55.9,78,29.77,10.0,SW,6.9,-,0.00,Rain,Light Rain,230,2012-12-11 09:56:00
5:15 AM,64.4,55.4,73,29.76,10.0,SW,6.9,-,0.00,,Overcast,220,2012-12-11 10:15:00
5:56 AM,63.0,55.9,78,29.78,10.0,SSW,6.9,-,0.00,,Mostly Cloudy,200,2012-12-11 10:56:00
6:56 AM,62.1,55.0,78,29.81,10.0,SW,8.1,-,N/A,,Mostly Cloudy,220,2012-12-11 11:56:00
7:37 AM,55.4,46.4,72,29.85,10.0,North,13.8,-,N/A,,Mostly Cloudy,10,2012-12-11 12:37:00
7:56 AM,54.0,45.0,72,29.88,10.0,North,11.5,-,N/A,,Mostly Cloudy,360,2012-12-11 12:56:00
8:56 AM,53.1,44.1,71,29.91,10.0,North,10.4,20.7,N/A,,Overcast,10,2012-12-11 13:56:00
9:56 AM,53.1,44.1,71,29.95,10.0,North,10.4,-,N/A,,Overcast,360,2012-12-11 14:56:00
10:56 AM,51.1,44.1,77,29.96,10.0,North,16.1,-,N/A,,Overcast,360,2012-12-11 15:56:00
11:56 AM,51.1,42.1,71,29.96,10.0,North,15.0,25.3,N/A,,Overcast,360,2012-12-11 16:56:00
12:56 PM,51.1,42.1,71,29.98,10.0,North,17.3,21.9,N/A,,Overcast,350,2012-12-11 17:56:00
1:56 PM,50.0,41.0,71,29.99,10.0,North,15.0,-,N/A,,Overcast,360,2012-12-11 18:56:00
2:56 PM,50.0,41.0,71,30.01,10.0,North,13.8,-,N/A,,Overcast,360,2012-12-11 19:56:00
3:56 PM,50.0,41.0,71,30.04,10.0,NNE,10.4,-,N/A,,Overcast,20,2012-12-11 20:56:00
4:40 PM,50.0,41.0,71,30.05,10.0,North,6.9,-,N/A,,Overcast,10,2012-12-11 21:40:00
4:56 PM,50.0,39.9,68,30.07,10.0,NNE,8.1,-,N/A,,Overcast,20,2012-12-11 21:56:00
5:56 PM,50.0,39.9,68,30.09,10.0,NNE,10.4,-,N/A,,Overcast,30,2012-12-11 22:56:00
6:56 PM,48.9,39.0,69,30.10,10.0,North,10.4,-,N/A,,Overcast,10,2012-12-11 23:56:00
7:56 PM,50.0,37.9,63,30.14,10.0,North,5.8,-,N/A,,Overcast,10,2012-12-12 00:56:00
8:56 PM,50.0,37.9,63,30.14,10.0,NNE,8.1,-,N/A,,Overcast,20,2012-12-12 01:56:00
9:56 PM,50.0,37.9,63,30.15,10.0,NNE,12.7,-,N/A,,Overcast,20,2012-12-12 02:56:00
10:56 PM,50.0,37.9,63,30.16,10.0,NNE,11.5,-,N/A,,Overcast,30,2012-12-12 03:56:00
11:56 PM,50.0,37.9,63,30.18,10.0,NNE,11.5,-,N/A,,Overcast,20,2012-12-12 04:56:00